Preview of NWS' New Version of Forecast
This preview is not operational and should not be used for support decisions.

Regional Weather Roundup (RWR)

Issued by National Weather Service (NWS)

                            
000
ASUS45 KBOU 210310
RWRCO 

WEATHER ROUNDUP FOR COLORADO
NATIONAL WEATHER SERVICE DENVER/BOULDER CO
900 PM MDT SAT JUL 20 2019

NOTE: "FAIR" INDICATES FEW OR NO CLOUDS BELOW 12000 FEET WITH NO
SIGNIFICANT WEATHER AND/OR OBSTRUCTIONS TO VISIBILITY.

COZ001>005-013-030-031-210400-
...NORTHWEST COLORADO...
  
CITY           SKY/WX    TMP DP  RH WIND       PRES   REMARKS
CRAIG          FAIR      72  52  49 NE7       30.08R                  
HAYDEN         LGT RAIN  69  50  50 E12       30.13R                  
MEEKER         FAIR      75  43  31 E6        30.08R                  
RANGELY        FAIR      81  33  18 CALM      29.95S                  
RABBIT EARS PA NOT AVBL                                               
STEAMBOAT SPGS FAIR      68  46  45 E6        30.15R                  
WALDEN         NOT AVBL                                               
$$

COZ006>008-011-210400-
...WEST CENTRAL VALLEYS...
  
CITY           SKY/WX    TMP DP  RH WIND       PRES   REMARKS
GRAND JUNCTION FAIR      82  23  11 NW8       29.93R                  
MONTROSE       FAIR      77  46  33 E13       30.06R                  
EAGLE          MOCLDY    70  49  47 E10       30.18F                  
RIFLE          FAIR      74  50  42 E13       30.03R                  
DELTA          FAIR      83  44  25 N9        30.00R                  
NUCLA          FAIR      82  16   8 SW7       30.08R                  
$$

COZ017>023-064>068-210400-
...SOUTHWEST COLORADO...
  
CITY           SKY/WX    TMP DP  RH WIND       PRES   REMARKS
DURANGO        FAIR      77  37  23 NW5       30.12S                  
CORTEZ         FAIR      70  40  33 S6        30.06R                  
PAGOSA SPRINGS FAIR      69  44  41 N6        30.25R                  
TELLURIDE      FAIR      66  34  30 CALM      30.38S                  
WOLF CREEK PAS NOT AVBL                                               
$$

COZ009-010-012-014-032>034-037-058>063-210400-
...CENTRAL COLORADO...
  
CITY           SKY/WX    TMP DP  RH WIND       PRES   REMARKS
ASPEN          FAIR      59  47  64 S10       30.26R                  
BUENA VISTA    FAIR      66  45  46 NE7       30.36R                  
COPPER MTN     MOCLDY    55  37  50 SE8       30.64R                  
BERTHOUD PASS  CLOUDY    43  30  61 SE7       30.68R                  
COTTONWOOD PAS NOT AVBL                                               
GUNNISON       FAIR      63  49  60 N6        30.30R                  
GRANBY         NOT AVBL                                               
KREMMLING      FAIR      64  46  52 SE14      30.27S                  
LEADVILLE      MOCLDY    53  44  71 SE3       30.48R                  
SALIDA         FAIR      71  44  38 CALM      30.39R                  
SUNLIGHT       FAIR      52  37  58 E5        30.51S                  
WILKERSON PASS CLOUDY    46  39  76 E12G21    30.62R                  
$$

COZ069>075-210400-
...SAN LUIS VALLEY/SANGRE DE CRISTO MOUNTAINS...
  
CITY           SKY/WX    TMP DP  RH WIND       PRES   REMARKS
ALAMOSA        FAIR      67  47  48 CALM      30.28R                  
DEL NORTE      MOCLDY    67  46  47 SE5       30.33R                  
LA VETA PASS   NOT AVBL                                               
SAGUACHE       FAIR      68  46  45 CALM      30.31R                  
$$

COZ035-036-038>040-210400-
...NORTHERN COLORADO FRONT RANGE...
  
CITY           SKY/WX    TMP DP  RH WIND       PRES   REMARKS
DENVER INTL AP CLOUDY    65  59  81 NW15      30.20R                  
AURORA         CLOUDY    64  57  80 W7        30.22R                  
FRONT RANGE AP CLOUDY    66  61  82 W5        30.22R                  
ERIE MUNI ARPT RAIN      63  59  87 N3        30.25R                  
BOULDER MUN AP FAIR      64  59  82 N5        30.21R                  
CENTENNIAL     CLOUDY    65  58  78 CALM      30.22R                  
BROOMFIELD     CLOUDY    64  59  82 NW12      30.22R                  
FORT COLLINS   LGT RAIN  64  59  83 SW15      30.18S                  
LONGMONT       FAIR      66  59  77 NW10G16   30.22S                  
$$

COZ041-046-047-076>085-087-088-210400-
...PIKES PEAK/PALMER DIVIDE AND SOUTHERN FOOTHILLS...
  
CITY           SKY/WX    TMP DP  RH WIND       PRES   REMARKS
COLO. SPRINGS  CLOUDY    65  54  67 NW10      30.23F                  
A. F. ACADEMY  FAIR      61  58  89 N5        30.25R                  
SCHRIEVER AFB  NOT AVBL                                               
CHEYENNE MTN   NOT AVBL                                               
ELLICOTT       MIX PCPN N/A N/A N/A E10       30.19F                  
FALCON         FAIR      63  49  59 N8        30.28F                  
FORT CARSON    NOT AVBL                                               
LIMON          LGT RAIN  67  63  87 N14       30.13F                  
MONUMENT HILL  LGT RAIN  59  55  88 W3        30.31F                  
CANON CITY     NOT AVBL                                               
WALSENBURG     NOT AVBL                                               
TRINIDAD       FAIR      68  56  65 NW12      30.20S                  
$$

COZ042>045-048>051-090-091-210400-
...NORTHEAST COLORADO...
  
CITY           SKY/WX    TMP DP  RH WIND       PRES   REMARKS
GREELEY ARPT   LGT RAIN  66  58  75 SW18      30.14F                  
AKRON          MOCLDY    70  63  78 W8        30.13R                  
BURLINGTON     CLOUDY    74  65  73 N17G28    30.03S                  
WRAY           CLOUDY    73  63  68 N13       30.05R                  
YUMA           CLOUDY    72  41  33 N7        30.09R                  
STERLING       FAIR      72  63  73 NW5       30.10R                  
HOLYOKE        CLOUDY    73  64  73 NE5       30.06R                  
FORT MORGAN    NOT AVBL                                               
$$

COZ086-089-092>099-210400-
...SOUTHEAST COLORADO...
  
CITY           SKY/WX    TMP DP  RH WIND       PRES   REMARKS
PUEBLO         LGT RAIN  69  63  81 NW8       30.12S                  
LA JUNTA       NOT AVBL                                               
LAMAR          TSTM      67  63  87 W24G32    29.96F                  
SPRINGFIELD      N/A     70  58  65 NW31G48   30.00R                  
$$